Location: Lake Mineral Wells State Park
(32.8157°N, 98.0290°W)
Time: 15:08:41
(UTC-06:00)

Envisat - Pass Details

Date: 27 October 2019
Orbit: 764 x 766 km, 98.1° (Epoch: 19 November)

Event Time Altitude Azimuth Distance (km) Brightness Sun altitude
Rises 19:46:19 0° 169° (S) 3,216 6.2 -13.3°
Reaches altitude 10° 19:48:37 10° 171° (S) 2,293 5.4 -13.8°
Maximum altitude 19:53:40 79° 257° (WSW) 782 3.1 -14.8°
Drops below altitude 10° 19:58:46 10° 345° (NNW) 2,306 5.6 -15.9°
Sets 20:01:05 0° 347° (NNW) 3,235 6.3 -16.4°
